Monterey, CA

7:58 AM PST on November 22, 2017 (GMT -0800)
Monterey Peninsula

Weather History for KMRY - March, 2014

Change the Weather History Date:

Wednesday, March 12, 2014

  Actual Average Record
Temperature  
Mean Temperature 63 °F 53 °F  
Max Temperature 77 °F 61 °F 77 °F (2014)
Min Temperature 48 °F 46 °F 38 °F (1999)
Degree Days  
Heating Degree Days 2    
Month to date heating degree days 76  
Since 1 July heating degree days 1880  
Cooling Degree Days 0    
Month to date cooling degree days 0  
Year to date cooling degree days 2  
Growing Degree Days 12 (Base 50)    
Moisture  
Dew Point 34 °F    
Average Humidity 39    
Maximum Humidity 61    
Minimum Humidity 16    
Precipitation  
Precipitation 0.00 in - 0.31 in (2006)
Month to date precipitation 1.02  
Year to date precipitation 4.82  
Since 1 July precipitation 6.10  
Sea Level Pressure  
Sea Level Pressure 30.03 in    
Wind  
Wind Speed 7 mph (East)    
Max Wind Speed 25 mph    
Max Gust Speed 33 mph    
Visibility 10 miles    
Events      
T = Trace of Precipitation, MM = Missing Value Source: NWS Daily Summary

Daily Weather History Graph

Daily Weather History Graph

Search for Another Location

Airport or City:

Trip Planner

Search our weather history database for the weather conditions in past years. The results will help you decide how hot, cold, wet, or windy it might be!

Date:

Astronomy

Mar. 12, 2014 Rise Set
Actual Time 7:22 AM PDT 7:12 PM PDT
Civil Twilight 6:56 AM PDT 7:37 PM PDT
Nautical Twilight 6:26 AM PDT 8:07 PM PDT
Astronomical Twilight 5:56 AM PDT 8:38 PM PDT
Moon 3:52 PM PDT (3/12) 4:52 AM PDT (3/12)
Length of Visible Light 12h 41m
Length of Day
11h 49m
Waxing Gibbous, 86% of the Moon is Illuminated
Mar 12
Waxing Gibbous
Mar 16
Full
Mar 23
Last Quarter
Mar 30
New
Apr 7
First Quarter

Hourly Weather History & Observations

Time (PDT) Temp. Dew Point Humidity Pressure Visibility Wind Dir Wind Speed Gust Speed Precip Events Conditions
12:54 AM 55.0 °F 36.0 °F 49% 30.03 in 10.0 mi East 10.4 mph - N/A   Clear
1:54 AM 53.1 °F 36.0 °F 52% 30.03 in 10.0 mi Calm Calm - N/A   Clear
2:54 AM 52.0 °F 36.0 °F 54% 30.02 in 10.0 mi East 5.8 mph - N/A   Clear
3:54 AM 51.1 °F 36.0 °F 56% 30.01 in 10.0 mi ENE 6.9 mph - N/A   Clear
4:54 AM 50.0 °F 36.0 °F 59% 30.01 in 10.0 mi East 5.8 mph - N/A   Clear
5:54 AM 48.9 °F 35.1 °F 59% 30.02 in 10.0 mi NE 3.5 mph - N/A   Clear
6:54 AM 48.0 °F 36.0 °F 63% 30.02 in 10.0 mi East 6.9 mph - N/A   Clear
7:54 AM 48.0 °F 36.0 °F 63% 30.05 in 10.0 mi Calm Calm - N/A   Clear
8:54 AM 55.0 °F 39.0 °F 55% 30.06 in 10.0 mi WNW 3.5 mph - N/A   Clear
9:54 AM 68.0 °F 37.0 °F 32% 30.05 in 10.0 mi East 12.7 mph 19.6 mph N/A   Clear
10:14 AM 69.8 °F 30.2 °F 23% 30.02 in 10.0 mi East 20.7 mph 26.5 mph N/A   Clear
10:54 AM 72.0 °F 28.0 °F 20% 30.06 in 10.0 mi East 17.3 mph 26.5 mph N/A   Clear
11:54 AM 75.0 °F 26.1 °F 16% 30.05 in 10.0 mi East 16.1 mph 23.0 mph N/A   Clear
12:54 PM 75.9 °F 28.9 °F 18% 30.04 in 10.0 mi ENE 11.5 mph - N/A   Clear
1:54 PM 75.9 °F 34.0 °F 22% 30.04 in 10.0 mi WNW 9.2 mph - N/A   Clear
2:54 PM 75.0 °F 30.9 °F 20% 30.03 in 10.0 mi West 9.2 mph 17.3 mph N/A   Clear
3:54 PM 75.0 °F 30.9 °F 20% 30.02 in 10.0 mi WSW 8.1 mph - N/A   Clear
4:54 PM 73.9 °F 30.0 °F 20% 30.01 in 10.0 mi Variable 4.6 mph - N/A   Scattered Clouds
5:54 PM 70.0 °F 39.0 °F 32% 30.01 in 10.0 mi WNW 10.4 mph - N/A   Clear
6:54 PM 66.9 °F 39.0 °F 36% 30.02 in 10.0 mi WSW 3.5 mph - N/A   Partly Cloudy
7:54 PM 64.0 °F 37.0 °F 37% 30.02 in 10.0 mi South 3.5 mph - N/A   Clear
8:54 PM 59.0 °F 37.0 °F 44% 30.04 in 10.0 mi East 6.9 mph - N/A   Clear
9:54 PM 61.0 °F 36.0 °F 39% 30.05 in 10.0 mi East 6.9 mph - N/A   Clear
10:54 PM 57.9 °F 36.0 °F 44% 30.06 in 10.0 mi Calm Calm - N/A   Clear
11:54 PM 55.9 °F 36.0 °F 47% 30.06 in 10.0 mi East 3.5 mph - N/A   Clear